{"data":{"norad_id":62048,"epoch":"2026-05-25T03:24:06.354144Z","epoch_age_seconds":61982,"freshness":"FRESH","line1":"1 62048U 24216S   26145.14174021  .00013151  00000+0  48648-3 0  9996","line2":"2 62048  42.9995 191.8543 0001405 261.9640  98.1052 15.27584835 85487","mean_motion":15.27584835,"eccentricity":0.0001405,"inclination_deg":42.9995,"raan_deg":191.8543,"arg_perigee_deg":261.964,"mean_anomaly_deg":98.1052,"bstar":0.00048648,"rev_number":8548,"period_min":94.26645034742,"perigee_km":482.07062373608,"apogee_km":483.99861296084,"semimajor_km":6861.1716183485,"source":"CELESTRAK","updated_at":"2026-05-25T13:38:19.527262Z"}}